Sella Ness, United Kingdom

3:30 AM BST on October 17, 2017 (GMT +0100)
Scatsta

Weather History for EGPM - October, 2013

Change the Weather History Date:

Monday, October 7, 2013

  Actual Average Record
Temperature  
Mean Temperature 56 °F -  
Max Temperature 59 °F 48 °F 59 °F (2013)
Min Temperature 53 °F 43 °F 35 °F (2016)
Degree Days  
Heating Degree Days 9    
Growing Degree Days 6 (Base 50)    
Moisture  
Dew Point 53 °F    
Average Humidity 89    
Maximum Humidity 94    
Minimum Humidity 88    
Precipitation  
Precipitation 0.00 in - - ()
Sea Level Pressure  
Sea Level Pressure 29.81 in    
Wind  
Wind Speed 17 mph ()    
Max Wind Speed 29 mph    
Max Gust Speed -    
Visibility 3.7 miles    
Events Rain    
Averages and records for this station are not official NWS values.
T = Trace of Precipitation, MM = Missing Value Source: Averaged Metar Reports

Daily Weather History Graph

Daily Weather History Graph

Search for Another Location

Airport or City:

Trip Planner

Search our weather history database for the weather conditions in past years. The results will help you decide how hot, cold, wet, or windy it might be!

Date:

Astronomy

Oct. 07, 2013 Rise Set
Actual Time 7:25 AM BST 6:18 PM BST
Civil Twilight 6:43 AM BST 7:00 PM BST
Nautical Twilight 5:54 AM BST 7:49 PM BST
Astronomical Twilight 5:03 AM BST 8:39 PM BST
Moon 10:48 AM BST (10/7) 6:59 PM BST (10/7)
Length of Visible Light 12h 17m
Length of Day
10h 52m
Waxing Crescent, 7% of the Moon is Illuminated
Oct 7
Waxing Crescent
Oct 12
First Quarter
Oct 19
Full
Oct 27
Last Quarter
Nov 3
New

Hourly Weather History & Observations

Time (BST) Temp. Dew Point Humidity Pressure Visibility Wind Dir Wind Speed Gust Speed Precip Events Conditions
12:20 AM 55.4 °F 51.8 °F 88% 29.80 in 1.1 mi SW 28.8 mph - N/A Rain Rain
12:50 AM 55.4 °F 51.8 °F 88% 29.77 in 3.7 mi SW 25.3 mph - N/A Rain Light Rain
1:20 AM 55.4 °F 51.8 °F 88% 29.77 in - SW 27.6 mph - N/A   Drizzle
1:50 AM 55.4 °F 51.8 °F 88% 29.80 in - SW 25.3 mph - N/A   Drizzle
2:20 AM 55.4 °F 51.8 °F 88% 29.80 in - WSW 28.8 mph - N/A   Drizzle
2:50 AM 55.4 °F 51.8 °F 88% 29.80 in 3.7 mi WSW 25.3 mph - N/A   Overcast
3:20 AM 55.4 °F 51.8 °F 88% 29.80 in 4.3 mi WSW 26.5 mph - N/A Rain Light Rain
3:50 AM 55.4 °F 51.8 °F 88% 29.80 in 4.3 mi WSW 23.0 mph - N/A   Overcast
4:20 AM 55.4 °F 51.8 °F 88% 29.80 in 5.0 mi WSW 20.7 mph - N/A   Overcast
4:50 AM 53.6 °F 50.0 °F 88% 29.80 in 6.2 mi WSW 18.4 mph - N/A   Overcast
5:20 AM 55.4 °F 51.8 °F 88% 29.80 in 6.2 mi WSW 18.4 mph - N/A   Overcast
5:50 AM 53.6 °F 50.0 °F 88% 29.80 in 6.2 mi SW 15.0 mph - N/A   Mostly Cloudy
6:20 AM 53.6 °F 50.0 °F 88% 29.83 in 6.2 mi SSW 11.5 mph - N/A   Partly Cloudy
6:50 AM 53.6 °F 50.0 °F 88% 29.80 in 6.2 mi SSW 11.5 mph - N/A   Scattered Clouds
7:20 AM 55.4 °F 51.8 °F 88% 29.80 in 6.2 mi SSW 13.8 mph - N/A   Scattered Clouds
7:50 AM 55.4 °F 51.8 °F 88% 29.80 in 6.2 mi SSW 13.8 mph - N/A Rain Light Rain
8:20 AM 55.4 °F 51.8 °F 88% 29.83 in 6.2 mi SW 13.8 mph - N/A Rain Light Rain
8:50 AM 55.4 °F 51.8 °F 88% 29.83 in 6.2 mi SW 13.8 mph - N/A Rain Light Rain
9:20 AM 55.4 °F 53.6 °F 94% 29.83 in 6.2 mi SSW 12.7 mph - N/A Rain Light Rain
9:50 AM 53.6 °F 50.0 °F 88% 29.83 in 6.2 mi SW 11.5 mph - N/A Rain Light Rain
10:20 AM 57.2 °F 55.4 °F 94% 29.83 in 3.7 mi SSW 8.1 mph - N/A Rain Light Rain
10:50 AM 59.0 °F 55.4 °F 88% 29.83 in 1.6 mi SW 8.1 mph - N/A Rain Light Rain
11:20 AM 57.2 °F 53.6 °F 88% 29.83 in 1.6 mi SW 10.4 mph - N/A Rain Light Rain
11:50 AM 57.2 °F 53.6 °F 88% 29.83 in 1.6 mi SSW 13.8 mph - N/A Rain Light Rain
12:20 PM 59.0 °F 55.4 °F 88% 29.83 in 3.1 mi SW 17.3 mph - N/A Rain Light Rain
12:50 PM 57.2 °F 53.6 °F 88% 29.80 in 3.1 mi SW 16.1 mph - N/A Rain Light Rain
1:20 PM 57.2 °F 53.6 °F 88% 29.83 in 6.2 mi SW 15.0 mph - N/A   Mostly Cloudy
1:50 PM 57.2 °F 53.6 °F 88% 29.83 in 2.2 mi SW 16.1 mph - N/A   Mostly Cloudy
2:20 PM 57.2 °F 53.6 °F 88% 29.83 in 1.6 mi SW 13.8 mph - N/A   Mostly Cloudy
2:50 PM 55.4 °F 53.6 °F 94% 29.83 in 2.8 mi SW 13.8 mph - N/A Rain Rain
3:20 PM 55.4 °F 53.6 °F 94% 29.83 in 2.2 mi SW 15.0 mph - N/A Rain Rain
3:50 PM 57.2 °F 53.6 °F 88% 29.83 in 2.2 mi SW 12.7 mph - N/A Rain Rain
4:50 PM 57.2 °F 53.6 °F 88% 29.80 in 2.5 mi SSW 12.7 mph - N/A Rain Heavy Rain
5:20 PM 57.2 °F 53.6 °F 88% 29.80 in 1.1 mi SSW 13.8 mph - N/A Rain Rain
5:50 PM 57.2 °F 53.6 °F 88% 29.80 in - SSW 15.0 mph - N/A   Drizzle
6:20 PM 57.2 °F 53.6 °F 88% 29.80 in - SSW 12.7 mph - N/A Rain Rain
6:50 PM 57.2 °F 53.6 °F 88% 29.80 in 1.3 mi SSW 13.8 mph - N/A   Drizzle
7:20 PM 57.2 °F 55.4 °F 94% 29.80 in 1.3 mi SW 15.0 mph - N/A Rain Heavy Rain
7:50 PM 57.2 °F 53.6 °F 88% 29.80 in 1.0 mi SSW 15.0 mph - N/A   Overcast
8:20 PM 57.2 °F 53.6 °F 88% 29.80 in 1.4 mi SW 15.0 mph - N/A   Overcast
8:50 PM 55.4 °F 53.6 °F 94% 29.80 in 3.7 mi SW 18.4 mph - N/A Rain Light Rain
9:20 PM 57.2 °F 53.6 °F 88% 29.80 in - SW 17.3 mph - N/A   Drizzle
9:50 PM 55.4 °F 53.6 °F 94% 29.83 in 1.2 mi SW 15.0 mph - N/A   Drizzle
10:20 PM 57.2 °F 53.6 °F 88% 29.83 in 6.2 mi SW 16.1 mph - N/A   Overcast
10:50 PM 57.2 °F 53.6 °F 88% 29.83 in 4.3 mi SW 15.0 mph - N/A   Overcast
11:20 PM 55.4 °F 53.6 °F 94% 29.83 in 0.7 mi SSW 16.1 mph - N/A   Drizzle
11:50 PM 55.4 °F 53.6 °F 94% 29.83 in 3.7 mi SSW 15.0 mph - N/A Rain Light Rain